| time (UTC) | temp C | wind direction | speed KPH | gust KPH | rain 1hr cm | rain 24hr cm | rain mn cm | humidity % | barometer mb |
| 20260505100507 | 16 | 121 | 4.8 | 8.0 | 0.00 | 0.05 | 0.05 | 75 | 1000.0 |
| 20260505100003 | 15 | 101 | 6.4 | 6.4 | 0.00 | 0.05 | 0.05 | 76 | 999.8 |
| 20260505095459 | 15 | 93 | 3.2 | 6.4 | 0.00 | 0.05 | 0.05 | 76 | 999.9 |
| 20260505094955 | 15 | 91 | 3.2 | 6.4 | 0.00 | 0.05 | 0.05 | 77 | 999.9 |
| 20260505094453 | 15 | 108 | 4.8 | 8.0 | 0.00 | 0.05 | 0.05 | 78 | 999.8 |
| 20260505093949 | 15 | 124 | 4.8 | 6.4 | 0.00 | 0.05 | 0.05 | 78 | 999.8 |
| 20260505093445 | 15 | 82 | 3.2 | 6.4 | 0.00 | 0.05 | 0.05 | 78 | 999.8 |
| 20260505092943 | 15 | 42 | 3.2 | 4.8 | 0.00 | 0.05 | 0.05 | 78 | 999.7 |
| 20260505092440 | 15 | 116 | 3.2 | 6.4 | 0.00 | 0.05 | 0.05 | 78 | 999.8 |
| 20260505091938 | 15 | 113 | 6.4 | 8.0 | 0.00 | 0.05 | 0.05 | 79 | 999.6 |
| 20260505091435 | 15 | 111 | 6.4 | 6.4 | 0.00 | 0.05 | 0.05 | 79 | 999.9 |
| 20260505090933 | 15 | 99 | 4.8 | 8.0 | 0.00 | 0.05 | 0.05 | 80 | 999.7 |
| 20260505090431 | 15 | 131 | 4.8 | 9.7 | 0.00 | 0.05 | 0.05 | 80 | 999.8 |
| 20260505085928 | 15 | 108 | 8.0 | 8.0 | 0.00 | 0.05 | 0.05 | 80 | 999.9 |
| 20260505085426 | 15 | 88 | 3.2 | 8.0 | 0.00 | 0.05 | 0.05 | 81 | 1000.0 |
| 20260505084924 | 15 | 129 | 8.0 | 9.7 | 0.00 | 0.05 | 0.05 | 81 | 1000.0 |
| 20260505084422 | 15 | 94 | 6.4 | 8.0 | 0.00 | 0.05 | 0.05 | 82 | 1000.1 |
| 20260505083920 | 15 | 108 | 4.8 | 6.4 | 0.00 | 0.05 | 0.05 | 82 | 1000.1 |
| 20260505083417 | 15 | 79 | 4.8 | 9.7 | 0.00 | 0.05 | 0.05 | 82 | 1000.0 |
| 20260505082913 | 15 | 103 | 4.8 | 8.0 | 0.00 | 0.05 | 0.05 | 82 | 1000.3 |
| 20260505082409 | 15 | 93 | 3.2 | 9.7 | 0.00 | 0.05 | 0.05 | 82 | 1000.1 |
| 20260505081906 | 15 | 78 | 3.2 | 8.0 | 0.00 | 0.05 | 0.05 | 81 | 1000.2 |
| 20260505081403 | 15 | 101 | 3.2 | 8.0 | 0.00 | 0.05 | 0.05 | 81 | 1000.1 |
| 20260505080859 | 15 | 94 | 4.8 | 11.3 | 0.00 | 0.05 | 0.05 | 81 | 1000.3 |
| 20260505080355 | 15 | 110 | 6.4 | 8.0 | 0.00 | 0.05 | 0.05 | 81 | 1000.1 |
| 20260505075851 | 15 | 112 | 3.2 | 8.0 | 0.00 | 0.05 | 0.05 | 80 | 1000.1 |
| 20260505075348 | 15 | 86 | 3.2 | 8.0 | 0.00 | 0.05 | 0.05 | 80 | 1000.2 |
| 20260505074845 | 15 | 98 | 6.4 | 8.0 | 0.00 | 0.05 | 0.05 | 80 | 1000.2 |
| 20260505074342 | 15 | 88 | 3.2 | 9.7 | 0.00 | 0.05 | 0.05 | 80 | 1000.2 |
| 20260505073840 | 15 | 97 | 4.8 | 9.7 | 0.00 | 0.05 | 0.05 | 81 | 1000.4 |
| 20260505073337 | 15 | 142 | 3.2 | 8.0 | 0.00 | 0.05 | 0.05 | 81 | 1000.2 |
| 20260505072834 | 15 | 92 | 3.2 | 9.7 | 0.00 | 0.05 | 0.05 | 81 | 1000.3 |
| 20260505072330 | 15 | 89 | 4.8 | 9.7 | 0.05 | 0.05 | 0.05 | 81 | 1000.1 |
| 20260505071826 | 15 | 98 | 4.8 | 8.0 | 0.05 | 0.05 | 0.05 | 82 | 1000.0 |
| 20260505071323 | 15 | 139 | 6.4 | 8.0 | 0.05 | 0.05 | 0.05 | 81 | 1000.4 |
| 20260505070821 | 16 | 109 | 4.8 | 9.7 | 0.30 | 0.05 | 0.05 | 78 | 1000.7 |
| 20260505070318 | 16 | 138 | 4.8 | 9.7 | 0.05 | 0.00 | 0.00 | 74 | 1001.5 |
| 20260505065813 | 16 | 104 | 6.4 | 9.7 | 0.00 | 0.00 | 0.00 | 72 | 1001.2 |
| 20260505065310 | 16 | 108 | 4.8 | 9.7 | 0.00 | 0.00 | 0.00 | 71 | 1001.1 |
| 20260505064807 | 17 | 114 | 8.0 | 9.7 | 0.00 | 0.00 | 0.00 | 70 | 1001.4 |
| 20260505064304 | 17 | 107 | 4.8 | 8.0 | 0.00 | 0.00 | 0.00 | 68 | 1001.0 |
| 20260505063802 | 17 | 97 | 6.4 | 9.7 | 0.00 | 0.00 | 0.00 | 66 | 1001.1 |
| 20260505063258 | 17 | 139 | 6.4 | 8.0 | 0.00 | 0.00 | 0.00 | 66 | 1001.0 |
| 20260505062754 | 17 | 129 | 9.7 | 12.9 | 0.00 | 0.00 | 0.00 | 65 | 1001.4 |
| 20260505062252 | 17 | 106 | 4.8 | 12.9 | 0.00 | 0.00 | 0.00 | 65 | 1001.2 |
| 20260505061748 | 17 | 110 | 4.8 | 8.0 | 0.00 | 0.00 | 0.00 | 64 | 1001.2 |
| 20260505061246 | 17 | 110 | 6.4 | 9.7 | 0.00 | 0.00 | 0.00 | 63 | 1001.1 |
| 20260505060743 | 17 | 113 | 3.2 | 12.9 | 0.00 | 0.00 | 0.00 | 63 | 1001.2 |
| 20260505060241 | 17 | 86 | 3.2 | 9.7 | 0.00 | 0.00 | 0.00 | 63 | 1001.3 |
| 20260505055736 | 17 | 122 | 4.8 | 9.7 | 0.00 | 0.00 | 0.00 | 63 | 1001.0 |
| 20260505055232 | 18 | 104 | 4.8 | 12.9 | 0.00 | 0.00 | 0.00 | 63 | 1001.0 |
| 20260505054730 | 18 | 149 | 9.7 | 11.3 | 0.00 | 0.00 | 0.00 | 63 | 1001.2 |
| 20260505054228 | 17 | 107 | 6.4 | 9.7 | 0.00 | 0.00 | 0.00 | 63 | 1001.2 |
| 20260505053726 | 17 | 109 | 4.8 | 9.7 | 0.00 | 0.00 | 0.00 | 63 | 1001.1 |
| 20260505053222 | 17 | 92 | 4.8 | 9.7 | 0.00 | 0.00 | 0.00 | 63 | 1001.2 |
| 20260505052719 | 17 | 117 | 4.8 | 8.0 | 0.00 | 0.00 | 0.00 | 63 | 1001.2 |
| 20260505052216 | 17 | 140 | 3.2 | 8.0 | 0.00 | 0.00 | 0.00 | 64 | 1001.2 |
| 20260505051713 | 17 | 125 | 3.2 | 9.7 | 0.00 | 0.00 | 0.00 | 64 | 1001.2 |
| 20260505051211 | 17 | 85 | 6.4 | 9.7 | 0.00 | 0.00 | 0.00 | 64 | 1001.2 |
| 20260505050709 | 17 | 100 | 6.4 | 9.7 | 0.00 | 0.00 | 0.00 | 63 | 1001.2 |
| 20260505050207 | 17 | 102 | 4.8 | 9.7 | 0.00 | 0.00 | 0.00 | 63 | 1001.0 |
| 20260505041642 | 16 | 107 | 4.8 | 6.4 | 0.00 | 0.00 | 0.00 | 62 | 1001.0 |
| 20260505041140 | 16 | 113 | 4.8 | 4.8 | 0.00 | 0.00 | 0.00 | 63 | 1001.2 |
| 20260505040636 | 16 | 101 | 1.6 | 6.4 | 0.00 | 0.00 | 0.00 | 62 | 1001.1 |
| 20260505040134 | 16 | 45 | 4.8 | 6.4 | 0.00 | 0.00 | 0.00 | 62 | 1001.3 |
| 20260505035630 | 16 | 116 | 4.8 | 6.4 | 0.00 | 0.00 | 0.00 | 62 | 1001.4 |
| 20260505035126 | 16 | 126 | 4.8 | 6.4 | 0.00 | 0.00 | 0.00 | 61 | 1001.5 |
| 20260505034623 | 16 | 105 | 3.2 | 6.4 | 0.00 | 0.00 | 0.00 | 61 | 1001.6 |
| 20260505034120 | 16 | 103 | 3.2 | 4.8 | 0.00 | 0.00 | 0.00 | 60 | 1001.7 |
| 20260505033616 | 16 | 78 | 4.8 | 8.0 | 0.00 | 0.00 | 0.00 | 59 | 1001.7 |
| 20260505033115 | 17 | 100 | 3.2 | 8.0 | 0.00 | 0.00 | 0.00 | 57 | 1001.9 |
| 20260505032613 | 17 | 117 | 6.4 | 8.0 | 0.00 | 0.00 | 0.00 | 55 | 1001.9 |
| 20260505032109 | 17 | 100 | 4.8 | 8.0 | 0.00 | 0.00 | 0.00 | 54 | 1002.0 |
| 20260505031606 | 16 | 124 | 6.4 | 8.0 | 0.00 | 0.00 | 0.00 | 53 | 1002.0 |
| 20260505031102 | 16 | 115 | 4.8 | 9.7 | 0.00 | 0.00 | 0.00 | 52 | 1002.1 |
| 20260505030559 | 16 | 78 | 3.2 | 6.4 | 0.00 | 0.00 | 0.00 | 53 | 1001.9 |
| 20260505030055 | 16 | 105 | 4.8 | 8.0 | 0.00 | 0.00 | 0.00 | 53 | 1002.0 |
| 20260505025551 | 15 | 118 | 1.6 | 8.0 | 0.00 | 0.00 | 0.00 | 54 | 1002.0 |
| 20260505025050 | 15 | 98 | 3.2 | 6.4 | 0.00 | 0.00 | 0.00 | 57 | 1001.7 |
| 20260505024547 | 15 | 96 | 3.2 | 4.8 | 0.00 | 0.00 | 0.00 | 59 | 1001.7 |
| 20260505024044 | 15 | 105 | 4.8 | 6.4 | 0.00 | 0.00 | 0.00 | 59 | 1001.9 |
| 20260505023541 | 15 | 87 | 3.2 | 6.4 | 0.00 | 0.00 | 0.00 | 61 | 1002.0 |
| 20260505023039 | 14 | 94 | 4.8 | 6.4 | 0.00 | 0.00 | 0.00 | 62 | 1001.7 |
| 20260505022536 | 14 | 120 | 4.8 | 6.4 | 0.00 | 0.00 | 0.00 | 62 | 1002.1 |
| 20260505022033 | 14 | 114 | 4.8 | 4.8 | 0.00 | 0.00 | 0.00 | 62 | 1001.9 |
| 20260505021530 | 14 | 100 | 3.2 | 6.4 | 0.00 | 0.00 | 0.00 | 61 | 1001.9 |
| 20260505021027 | 14 | 110 | 4.8 | 6.4 | 0.00 | 0.00 | 0.00 | 61 | 1002.0 |
| 20260505020526 | 15 | 109 | 3.2 | 6.4 | 0.00 | 0.00 | 0.00 | 62 | 1002.1 |
| 20260505020024 | 15 | 106 | 4.8 | 4.8 | 0.00 | 0.00 | 0.00 | 62 | 1001.9 |
| 20260505015521 | 15 | 101 | 3.2 | 4.8 | 0.00 | 0.00 | 0.00 | 63 | 1001.9 |
| 20260505015017 | 15 | 121 | 4.8 | 4.8 | 0.00 | 0.00 | 0.00 | 61 | 1002.2 |
| 20260505014514 | 15 | 113 | 3.2 | 6.4 | 0.00 | 0.00 | 0.00 | 61 | 1002.1 |
| 20260505014012 | 15 | 101 | 3.2 | 6.4 | 0.00 | 0.00 | 0.00 | 61 | 1002.2 |
| 20260505013509 | 15 | 129 | 6.4 | 6.4 | 0.00 | 0.00 | 0.00 | 59 | 1002.2 |
| 20260505013006 | 15 | 117 | 3.2 | 6.4 | 0.00 | 0.00 | 0.00 | 59 | 1002.2 |
| 20260505012504 | 15 | 124 | 3.2 | 6.4 | 0.00 | 0.00 | 0.00 | 58 | 1002.0 |
| 20260505012000 | 15 | 148 | 6.4 | 8.0 | 0.00 | 0.00 | 0.00 | 56 | 1002.1 |
| 20260505011456 | 15 | 122 | 6.4 | 8.0 | 0.00 | 0.00 | 0.00 | 56 | 1002.3 |
| 20260505010953 | 16 | 138 | 6.4 | 6.4 | 0.00 | 0.00 | 0.00 | 54 | 1002.1 |
| 20260505010449 | 16 | 132 | 6.4 | 8.0 | 0.00 | 0.00 | 0.00 | 54 | 1002.0 |
| 20260505005945 | 16 | 141 | 6.4 | 8.0 | 0.00 | 0.00 | 0.00 | 53 | 1001.9 |
| 20260505005442 | 16 | 127 | 6.4 | 6.4 | 0.00 | 0.00 | 0.00 | 52 | 1002.1 |
| 20260505004940 | 17 | 138 | 4.8 | 6.4 | 0.00 | 0.00 | 0.00 | 50 | 1002.1 |
| 20260505004436 | 17 | 128 | 4.8 | 8.0 | 0.00 | 0.00 | 0.00 | 48 | 1002.0 |
| 20260505003933 | 17 | 129 | 6.4 | 8.0 | 0.00 | 0.00 | 0.00 | 48 | 1002.1 |
| 20260505003430 | 17 | 130 | 6.4 | 8.0 | 0.00 | 0.00 | 0.00 | 48 | 1002.0 |
| 20260505002927 | 18 | 119 | 6.4 | 8.0 | 0.00 | 0.00 | 0.00 | 46 | 1001.9 |
| 20260505002423 | 18 | 121 | 6.4 | 6.4 | 0.00 | 0.00 | 0.00 | 46 | 1002.0 |
| 20260505001921 | 18 | 120 | 6.4 | 8.0 | 0.00 | 0.00 | 0.00 | 45 | 1001.9 |
| 20260505001419 | 19 | 113 | 6.4 | 6.4 | 0.00 | 0.00 | 0.00 | 43 | 1001.9 |
| 20260505000916 | 19 | 107 | 4.8 | 6.4 | 0.00 | 0.00 | 0.00 | 42 | 1002.0 |
| 20260505000414 | 20 | 118 | 6.4 | 8.0 | 0.00 | 0.00 | 0.00 | 40 | 1002.0 |
| 20260504235910 | 20 | 116 | 6.4 | 8.0 | 0.00 | 0.00 | 0.00 | 40 | 1002.0 |
| 20260504235408 | 20 | 118 | 4.8 | 8.0 | 0.00 | 0.00 | 0.00 | 39 | 1002.0 |
| 20260504234903 | 20 | 89 | 4.8 | 8.0 | 0.00 | 0.00 | 0.00 | 39 | 1002.0 |
| 20260504234401 | 20 | 115 | 4.8 | 8.0 | 0.00 | 0.00 | 0.00 | 38 | 1002.1 |
| 20260504233857 | 21 | 117 | 6.4 | 6.4 | 0.00 | 0.00 | 0.00 | 37 | 1002.4 |
| 20260504233353 | 21 | 122 | 4.8 | 6.4 | 0.00 | 0.00 | 0.00 | 37 | 1002.2 |
| 20260504232850 | 21 | 124 | 6.4 | 6.4 | 0.00 | 0.00 | 0.00 | 36 | 1002.3 |
| 20260504232347 | 21 | 110 | 3.2 | 6.4 | 0.00 | 0.00 | 0.00 | 37 | 1002.2 |
| 20260504231844 | 21 | 123 | 4.8 | 6.4 | 0.00 | 0.00 | 0.00 | 35 | 1002.2 |
| 20260504231340 | 21 | 116 | 4.8 | 9.7 | 0.00 | 0.00 | 0.00 | 35 | 1002.2 |
| 20260504230836 | 21 | 120 | 6.4 | 8.0 | 0.00 | 0.00 | 0.00 | 35 | 1002.2 |
| 20260504230335 | 21 | 106 | 6.4 | 6.4 | 0.00 | 0.00 | 0.00 | 35 | 1002.2 |
| 20260504225833 | 21 | 172 | 3.2 | 8.0 | 0.00 | 0.00 | 0.00 | 34 | 1002.1 |
| 20260504225329 | 22 | 154 | 3.2 | 8.0 | 0.00 | 0.00 | 0.00 | 35 | 1002.2 |
| 20260504224827 | 22 | 114 | 6.4 | 8.0 | 0.00 | 0.00 | 0.00 | 33 | 1002.3 |
| 20260504224323 | 22 | 105 | 4.8 | 12.9 | 0.00 | 0.00 | 0.00 | 33 | 1002.0 |
| 20260504223820 | 22 | 242 | 12.9 | 12.9 | 0.00 | 0.00 | 0.00 | 33 | 1002.0 |
| 20260504223315 | 22 | 123 | 8.0 | 14.5 | 0.00 | 0.00 | 0.00 | 33 | 1002.0 |
| 20260504222812 | 22 | 112 | 6.4 | 24.1 | 0.00 | 0.00 | 0.00 | 32 | 1002.1 |
| 20260504222309 | 22 | 103 | 3.2 | 9.7 | 0.00 | 0.00 | 0.00 | 33 | 1002.1 |
| 20260504221808 | 22 | 200 | 6.4 | 12.9 | 0.00 | 0.00 | 0.00 | 32 | 1001.9 |
| 20260504221304 | 22 | 117 | 4.8 | 12.9 | 0.00 | 0.00 | 0.00 | 33 | 1002.1 |
| 20260504220801 | 23 | 175 | 9.7 | 11.3 | 0.00 | 0.00 | 0.00 | 32 | 1002.0 |
| 20260504220258 | 23 | 148 | 6.4 | 11.3 | 0.00 | 0.00 | 0.00 | 31 | 1002.2 |
| 20260504215755 | 23 | 86 | 4.8 | 19.3 | 0.00 | 0.00 | 0.00 | 31 | 1001.9 |
| 20260504215251 | 23 | 182 | 6.4 | 9.7 | 0.00 | 0.00 | 0.00 | 31 | 1001.8 |
| 20260504214747 | 23 | 93 | 4.8 | 11.3 | 0.00 | 0.00 | 0.00 | 33 | 1002.1 |
| 20260504214244 | 23 | 124 | 6.4 | 8.0 | 0.00 | 0.00 | 0.00 | 32 | 1002.0 |
| 20260504213741 | 23 | 121 | 9.7 | 14.5 | 0.00 | 0.00 | 0.00 | 31 | 1002.0 |
| 20260504213237 | 23 | 100 | 4.8 | 6.4 | 0.00 | 0.00 | 0.00 | 32 | 1002.0 |
| 20260504212734 | 23 | 157 | 4.8 | 16.1 | 0.00 | 0.00 | 0.00 | 31 | 1002.1 |
| 20260504212231 | 23 | 125 | 4.8 | 8.0 | 0.00 | 0.00 | 0.00 | 32 | 1002.0 |
| 20260504211728 | 24 | 96 | 6.4 | 14.5 | 0.00 | 0.00 | 0.00 | 32 | 1002.0 |
| 20260504211224 | 25 | 167 | 4.8 | 11.3 | 0.00 | 0.00 | 0.00 | 31 | 1002.2 |
| 20260504210722 | 25 | 285 | 8.0 | 9.7 | 0.00 | 0.00 | 0.00 | 31 | 1002.1 |
| 20260504210219 | 25 | 138 | 3.2 | 8.0 | 0.00 | 0.00 | 0.00 | 35 | 1002.2 |
| 20260504205716 | 25 | 149 | 1.6 | 9.7 | 0.00 | 0.00 | 0.00 | 33 | 1002.2 |
| 20260504205214 | 24 | 112 | 6.4 | 9.7 | 0.00 | 0.00 | 0.00 | 33 | 1002.0 |
| 20260504204712 | 24 | 113 | 4.8 | 17.7 | 0.00 | 0.00 | 0.00 | 34 | 1002.2 |
| 20260504204210 | 24 | 100 | 6.4 | 24.1 | 0.00 | 0.00 | 0.00 | 33 | 1002.1 |
| 20260504203709 | 24 | 155 | 6.4 | 9.7 | 0.00 | 0.00 | 0.00 | 35 | 1002.2 |
| 20260504203206 | 24 | 205 | 6.4 | 14.5 | 0.00 | 0.00 | 0.00 | 33 | 1002.1 |
| 20260504202706 | 23 | 192 | 4.8 | 20.9 | 0.00 | 0.00 | 0.00 | 35 | 1002.3 |
| 20260504202203 | 23 | 89 | 6.4 | 11.3 | 0.00 | 0.00 | 0.00 | 35 | 1002.3 |
| 20260504201700 | 23 | 125 | 6.4 | 17.7 | 0.00 | 0.00 | 0.00 | 35 | 1002.6 |
| 20260504201157 | 23 | 113 | 8.0 | 25.7 | 0.00 | 0.00 | 0.00 | 35 | 1002.6 |
| 20260504200655 | 23 | 127 | 9.7 | 9.7 | 0.00 | 0.00 | 0.00 | 37 | 1002.5 |
| 20260504200151 | 23 | 150 | 3.2 | 11.3 | 0.00 | 0.00 | 0.00 | 35 | 1002.6 |
| 20260504195647 | 24 | 226 | 14.5 | 24.1 | 0.00 | 0.00 | 0.00 | 36 | 1002.7 |
| 20260504195143 | 23 | 122 | 6.4 | 9.7 | 0.00 | 0.00 | 0.00 | 35 | 1002.8 |
| 20260504194640 | 23 | 122 | 11.3 | 12.9 | 0.00 | 0.00 | 0.00 | 37 | 1002.9 |
| 20260504194136 | 23 | 80 | 6.4 | 9.7 | 0.00 | 0.00 | 0.00 | 38 | 1003.1 |
| 20260504193633 | 23 | 117 | 8.0 | 11.3 | 0.00 | 0.00 | 0.00 | 36 | 1003.1 |
| 20260504193131 | 23 | 104 | 9.7 | 11.3 | 0.00 | 0.00 | 0.00 | 37 | 1003.0 |
| 20260504192629 | 23 | 160 | 3.2 | 11.3 | 0.00 | 0.00 | 0.00 | 37 | 1003.0 |
| 20260504192126 | 23 | 133 | 9.7 | 20.9 | 0.00 | 0.00 | 0.00 | 37 | 1003.4 |
| 20260504191625 | 23 | 100 | 6.4 | 11.3 | 0.00 | 0.00 | 0.00 | 38 | 1003.3 |
| 20260504191121 | 23 | 157 | 8.0 | 20.9 | 0.00 | 0.00 | 0.00 | 39 | 1003.3 |
| 20260504190617 | 23 | 139 | 6.4 | 22.5 | 0.00 | 0.00 | 0.00 | 40 | 1003.4 |
| 20260504190114 | 23 | 106 | 6.4 | 9.7 | 0.00 | 0.00 | 0.00 | 39 | 1003.4 |
| 20260504185610 | 23 | 126 | 6.4 | 25.7 | 0.00 | 0.00 | 0.00 | 37 | 1003.5 |
| 20260504185107 | 23 | 116 | 8.0 | 8.0 | 0.00 | 0.00 | 0.00 | 41 | 1003.8 |
| 20260504184602 | 22 | 123 | 6.4 | 9.7 | 0.00 | 0.00 | 0.00 | 40 | 1003.7 |
| 20260504184058 | 22 | 97 | 4.8 | 11.3 | 0.00 | 0.00 | 0.00 | 39 | 1003.8 |
| 20260504183555 | 23 | 92 | 6.4 | 11.3 | 0.00 | 0.00 | 0.00 | 40 | 1003.8 |
| 20260504183053 | 23 | 121 | 9.7 | 9.7 | 0.00 | 0.00 | 0.00 | 41 | 1003.9 |
| 20260504182550 | 23 | 125 | 8.0 | 11.3 | 0.00 | 0.00 | 0.00 | 41 | 1003.7 |
| 20260504182047 | 22 | 166 | 4.8 | 14.5 | 0.00 | 0.00 | 0.00 | 42 | 1003.9 |
| 20260504181544 | 22 | 126 | 4.8 | 12.9 | 0.00 | 0.00 | 0.00 | 41 | 1003.9 |
| 20260504181042 | 22 | 99 | 3.2 | 9.7 | 0.00 | 0.00 | 0.00 | 42 | 1004.0 |
| 20260504180541 | 22 | 107 | 8.0 | 9.7 | 0.00 | 0.00 | 0.00 | 42 | 1004.0 |
| 20260504180040 | 22 | 108 | 6.4 | 9.7 | 0.00 | 0.00 | 0.00 | 42 | 1004.2 |
| 20260504175536 | 22 | 141 | 4.8 | 19.3 | 0.00 | 0.00 | 0.00 | 43 | 1004.3 |
| 20260504175033 | 22 | 99 | 9.7 | 11.3 | 0.00 | 0.00 | 0.00 | 41 | 1004.1 |
| 20260504174531 | 22 | 120 | 4.8 | 9.7 | 0.00 | 0.00 | 0.00 | 41 | 1004.3 |
| 20260504174028 | 21 | 124 | 9.7 | 12.9 | 0.00 | 0.00 | 0.00 | 42 | 1004.5 |
| 20260504173525 | 21 | 120 | 4.8 | 16.1 | 0.00 | 0.00 | 0.00 | 42 | 1004.3 |
| 20260504173022 | 21 | 110 | 6.4 | 22.5 | 0.00 | 0.00 | 0.00 | 43 | 1004.5 |
| 20260504172518 | 21 | 230 | 12.9 | 12.9 | 0.00 | 0.00 | 0.00 | 43 | 1004.4 |
| 20260504172014 | 21 | 97 | 4.8 | 11.3 | 0.00 | 0.00 | 0.00 | 43 | 1004.5 |
| 20260504171512 | 21 | 113 | 9.7 | 12.9 | 0.00 | 0.00 | 0.00 | 42 | 1004.5 |
| 20260504171008 | 21 | 88 | 6.4 | 11.3 | 0.00 | 0.00 | 0.00 | 43 | 1004.5 |
| 20260504170504 | 21 | 74 | 3.2 | 9.7 | 0.00 | 0.00 | 0.00 | 44 | 1004.6 |
| 20260504160425 | 20 | 211 | 8.0 | 20.9 | 0.00 | 0.00 | 0.00 | 43 | 1004.9 |
| 20260504150848 | 18 | 112 | 8.0 | 11.3 | 0.00 | 0.00 | 0.00 | 45 | 1005.3 |
| 20260504150345 | 18 | 94 | 6.4 | 11.3 | 0.00 | 0.00 | 0.00 | 46 | 1005.3 |
| 20260504141315 | 18 | 106 | 9.7 | 20.9 | 0.00 | 0.00 | 0.00 | 45 | 1005.3 |
| 20260504140811 | 17 | 143 | 6.4 | 9.7 | 0.00 | 0.00 | 0.00 | 46 | 1005.2 |
| 20260504140307 | 17 | 164 | 4.8 | 12.9 | 0.00 | 0.00 | 0.00 | 46 | 1005.3 |
| 20260504130736 | 16 | 162 | 6.4 | 14.5 | 0.00 | 0.00 | 0.00 | 47 | 1005.8 |
| 20260504130232 | 16 | 103 | 4.8 | 9.7 | 0.00 | 0.00 | 0.00 | 47 | 1005.7 |
| 20260504120156 | 14 | 187 | 8.0 | 9.7 | 0.00 | 0.00 | 0.00 | 52 | 1006.1 |
| 20260504110623 | 12 | 115 | 6.4 | 6.4 | 0.00 | 0.00 | 0.00 | 55 | 1006.1 |
| 20260504110119 | 12 | 141 | 8.0 | 9.7 | 0.00 | 0.00 | 0.00 | 56 | 1006.1 |